This demonstration page uses our WeatherBlox Daily Observations layout. Learn more.

Left ArrowRight Arrow

39.01783, -85.05884

Hourly Observations for April 2, 2020

Temp ( °F °C ) Dew Point ( °F °C ) Humidity (%) Winds ( mph kmh ) Pressure ( in mb ) Visibility ( mi km ) Precip ( " mm )
12:52 am 00:52 Mostly Cloudy 46 7.8 36 2.2 68 68 NNW 7 11 30.10 1019 10 16 N/A
1:52 am 01:52 Mostly Cloudy 44 6.7 37 2.8 76 76 N 6 9 30.10 1019 10 16 N/A
2:52 am 02:52 Partly Cloudy 45 7.2 37 2.8 74 74 NW 3 6 30.10 1019 10 16 N/A
3:52 am 03:52 Clear 44 6.7 36 2.2 73 73 NNW 5 7 30.10 1019 10 16 N/A
4:52 am 04:52 Clear 39 3.9 35 1.7 86 86 N N/A 30.11 1020 10 16 N/A
5:52 am 05:52 Clear 40 4.4 36 2.2 86 86 W 3 6 30.11 1020 10 16 N/A
6:52 am 06:52 Clear 40 4.4 36 2.2 86 86 NNW 5 7 30.13 1020 10 16 N/A
7:52 am 07:52 Sunny 39 3.9 36 2.2 89 89 WNW 3 6 30.16 1021 7 11 N/A
8:52 am 08:52 Sunny 44 6.7 39 3.9 83 83 N 5 7 30.17 1022 8 13 N/A
9:52 am 09:52 Mostly Sunny 49 9.4 39 3.9 69 69 N 7 11 30.19 1022 10 16 N/A
10:52 am 10:52 Mostly Sunny 51 10.6 37 2.8 59 59 NNE 7 11 30.19 1022 10 16 N/A
11:52 am 11:52 Partly Cloudy 53 11.7 35 1.7 51 51 NNW 7 11 30.18 1022 10 16 N/A
12:52 pm 12:52 Partly Cloudy 55 12.8 34 1.1 45 45 NE 7 11 30.17 1022 10 16 N/A
1:52 pm 13:52 Partly Cloudy 57 13.9 34 1.1 42 42 NNW 3 6 30.14 1021 10 16 N/A
2:52 pm 14:52 Partly Cloudy 58 14.4 35 1.7 42 42 NE 3 6 30.12 1020 10 16 N/A
3:52 pm 15:52 Partly Cloudy 59 15 35 1.7 41 41 VRB 5 7 30.09 1019 10 16 N/A
4:52 pm 16:52 Partly Cloudy 61 16.1 33 0.6 35 35 NNW 5 7 30.08 1019 10 16 N/A
6:52 pm 18:52 Partly Cloudy 59 15 33 0.6 38 38 NNW 8 13 30.08 1019 10 16 N/A
9:52 pm 21:52 Partly Cloudy 54 12.2 34 1.1 47 47 ENE 8 13 30.09 1019 10 16 N/A
10:52 pm 22:52 Mostly Cloudy 52 11.1 34 1.1 50 50 N N/A 30.09 1019 10 16 N/A
11:52 pm 23:52 Mostly Cloudy 49 9.4 34 1.1 56 56 N 6 9 30.09 1019 10 16 N/A

Powered by AerisWeather